OBJECT F

Satellite information

Favourite Embed

Satellite Type and Status

UNKNOWNIN ORBIT

Key statistics

Satellite OBJECT F at a glance.

Uptime

592

Days in orbit

Revolutions

≈ 15.6

Per day

Orbit

SSO

Sun Synchronous Orbit

Inclination

97.5

Latest

Satellite identification and parameters

Extended collection of information and parameters for OBJECT F.

Object identification

Identified? True

Debris? False

Object name: OBJECT F

International designator: 2024-016F

Object number (NORAD): 58825

Object ID (CCSDS): 58825

Country: PEOPLES REPUBLIC OF CHINA (PRC)

Current information (Y/N): Y

RCS size: MEDIUM

Orbital parameters

Period: 92.399 minutes

Inclination: 97.47 deg

SMA: 6770.258 km

Apoapsis: 395.421 km

Periapsis: 388.824 km

RAAN: 335.681 deg

Eccentricy: 0.00048725

Argument of periapsis: 331.9978 deg

Mean anomaly: 28.1015 deg

Mean motion: 15.58457497 rev/day

Mean motion (dot): 0.00109435 rev/day2

B* drag term: 0.0014199595 1/REarth

Two-line elements (TLE)

Creation date: Sept. 6, 2025, 2:09 a.m.

Reference frame: TEME

Reference center: EARTH

Epoch: Sept. 5, 2025, 11:42 p.m. UTC

TLE line 0: 0 OBJECT F

TLE line 1: 1 58825U 24016F 25248.98776406 .00109435 00000-0 14200-2 0 9990

TLE line 2: 2 58825 97.4700 335.6810 0004872 331.9978 28.1015 15.58457497 90364

Live tracking on map

Real-time ground track for satellite OBJECT F.

In-orbit conjunctions

There are no conjunctions computed for OBJECT F, at the moment. Check back to stay up to date, as we update our databases every day.

Go to all conjunctions

Associated space launch

Carries 5 Earth and spatial observation satellites manufactured by MINOSPACE; details TBD: * Taijing-1-03 * Taijing-2-02 * Taijing-2-04 * Taijing-3-02 * Taijing-4-03

OBJECT F was lifted into orbit during the mission ‘Kinetica 1 | Flight 3’, on board a Kinetica 1 space rocket.

The launch took place on Jan. 23, 2024, 4:03 a.m. from Launch Area 130.

For more information about the launch, click the button.

Launch to space Kinetica 1 | Flight 3
Kinetica 1 | Flight 3

Agency: N/A

Status: Launch Successful

Launch date: Jan. 23, 2024, 4:03 a.m. UTC

Rocket: Kinetica 1

Launch pad: Launch Area 130

Location: Jiuquan Satellite Launch Center, People's Republic of China

...

Latest news about this satellite

There are no fresh news available about this satellite. Check back as we update our databases every day.


Newsletter sign-up

Weekly statistics, charts and insights to help you stay on top of the space industry.